Find OneWeb SL0092

NORAD ID: 45437 Int'l Des: 2020-020 Owner: ONEWEB Country: UK Constellation: oneweb operational
LEOCIRCULARPOLARONEWEB_TYPE

現在のビュー

3D地球を読み込み中...

About OneWeb SL0092

OneWeb SL0092 (NORAD 45437) is a oneweb constellation satellite launched Mar 21, 2020 by ONEWEB of UK. It operates in LEO, CIRCULAR, POLAR, ONEWEB_TYPE orbit with a mass of 148.00 kg.

OneWeb SL0092について

説明を読み込み中...

次回通過

Passes for default location (London). Set your location on the main map for personalized predictions.

高度履歴

Loading altitude history...

軌道要素

1 45437U 20020P 26170.51865736 -.00000168 00000-0 -50990-3 0 9997
2 45437 87.8889 20.5958 0002128 84.0311 276.1059 13.11420585303097
Epoch: Jun 19, 2026 • Age: 9 hours

現在のステータス

高度 1227.5 km
速度 7.25 km/s
衛星直下点 65.25°N, 147.92°E
打ち上げ日 Mar 21, 2020
運用期間 6.2 years
タイプ internet

技術仕様

分類 Payload
質量 148.00 kg
乾燥質量 140.00 kg
総質量 148.00 kg
長さ 1.30 m
直径 1.00 m
スパン 5.00 m
形状 Trapezoid+2 pan
製造者 ONEWUS
バスタイプ ARROW
フェーズステータス In Orbit
所有者/国 ONEWEB/UK

Most Searched